GLD1144 SBSN-SBBV

Flight info

Callsign GLD1144
Flight time 1h 6m
Altitude 38000
Route SOBID DCT LODOK UZ24 ANBIX
Aircraft C750/M-SDFGIRY/S

Departure

Time 2026-04-21 22:31
Airport Santarém - Maestro Wilson Fonseca International Airport (SBSN)

Arrival

Time 2026-04-21 23:38
Airport Atlas Brasil Cantanhede International Airport (SBBV)
Time Latitude Longitude Altitude Speed Heading
2026-04-21 22:15 -2.42369 -54.78627 203 ft 0 kts 23°
2026-04-21 22:29 -2.42354 -54.78620 206 ft 6 kts 32°
2026-04-21 22:30 -2.42316 -54.78632 212 ft 9 kts 319°
2026-04-21 22:30 -2.42270 -54.78675 207 ft 9 kts 317°
2026-04-21 22:30 -2.42226 -54.78715 203 ft 8 kts 319°
2026-04-21 22:30 -2.42180 -54.78758 204 ft 10 kts 318°
2026-04-21 22:31 -2.42163 -54.78823 205 ft 19 kts 261°
2026-04-21 22:31 -2.42248 -54.79334 208 ft 131 kts 261°
2026-04-21 22:31 -2.42417 -54.80343 675 ft 152 kts 261°
2026-04-21 22:31 -2.42588 -54.81372 1429 ft 155 kts 259°
2026-04-21 22:32 -2.42796 -54.82528 1860 ft 184 kts 260°
2026-04-21 22:32 -2.43013 -54.83898 2374 ft 214 kts 261°
2026-04-21 22:32 -2.43039 -54.85474 2829 ft 245 kts 283°
2026-04-21 22:32 -2.42228 -54.87067 3334 ft 270 kts 304°
2026-04-21 22:33 -2.41114 -54.88576 4426 ft 269 kts 307°
2026-04-21 22:33 -2.40051 -54.90110 5390 ft 275 kts 303°
2026-04-21 22:33 -2.39034 -54.91749 6313 ft 280 kts 301°
2026-04-21 22:33 -2.37992 -54.93413 7225 ft 284 kts 302°
2026-04-21 22:34 -2.36907 -54.95082 8229 ft 288 kts 303°
2026-04-21 22:34 -2.35807 -54.96776 9259 ft 293 kts 303°
2026-04-21 22:34 -2.34697 -54.98505 10151 ft 300 kts 302°
2026-04-21 22:34 -2.33527 -55.00329 10471 ft 325 kts 303°
2026-04-21 22:35 -2.32249 -55.02312 10610 ft 353 kts 302°
2026-04-21 22:35 -2.30891 -55.04422 11101 ft 363 kts 302°
2026-04-21 22:35 -2.29523 -55.06548 11901 ft 365 kts 302°
2026-04-21 22:35 -2.28135 -55.08705 12630 ft 370 kts 303°
2026-04-21 22:36 -2.25322 -55.13075 14034 ft 378 kts 303°
2026-04-21 22:36 -2.23895 -55.15293 14672 ft 381 kts 303°
2026-04-21 22:36 -2.22452 -55.17533 15308 ft 385 kts 303°
2026-04-21 22:37 -2.20997 -55.19793 15955 ft 388 kts 303°
2026-04-21 22:37 -2.19527 -55.22076 16618 ft 392 kts 303°
2026-04-21 22:37 -2.18042 -55.24383 17285 ft 396 kts 303°
2026-04-21 22:37 -2.16540 -55.26717 17982 ft 400 kts 303°
2026-04-21 22:38 -2.15027 -55.29066 18623 ft 404 kts 303°
2026-04-21 22:38 -2.13498 -55.31441 19239 ft 408 kts 303°
2026-04-21 22:38 -2.11951 -55.33844 19874 ft 413 kts 303°
2026-04-21 22:38 -2.10387 -55.36272 20513 ft 417 kts 303°
2026-04-21 22:39 -2.08809 -55.38724 21148 ft 421 kts 303°
2026-04-21 22:39 -2.07303 -55.41255 21739 ft 426 kts 301°
2026-04-21 22:39 -2.05793 -55.43818 22387 ft 430 kts 302°
2026-04-21 22:39 -2.04246 -55.46405 23014 ft 435 kts 302°
2026-04-21 22:40 -2.02695 -55.49015 23609 ft 439 kts 301°
2026-04-21 22:40 -2.01134 -55.51670 24121 ft 444 kts 301°
2026-04-21 22:40 -1.99579 -55.54308 24621 ft 449 kts 301°
2026-04-21 22:40 -1.97979 -55.57004 25121 ft 454 kts 301°
2026-04-21 22:41 -1.96363 -55.59729 25623 ft 458 kts 301°
2026-04-21 22:41 -1.94731 -55.62494 26124 ft 463 kts 301°
2026-04-21 22:41 -1.93086 -55.65279 26625 ft 468 kts 301°
2026-04-21 22:41 -1.91419 -55.68094 27124 ft 473 kts 301°
2026-04-21 22:42 -1.89734 -55.70941 27619 ft 477 kts 301°
2026-04-21 22:42 -1.88033 -55.73817 28078 ft 483 kts 301°
2026-04-21 22:42 -1.86315 -55.76722 28554 ft 488 kts 301°
2026-04-21 22:42 -1.84581 -55.79655 29026 ft 492 kts 301°
2026-04-21 22:43 -1.82829 -55.82615 29493 ft 497 kts 301°
2026-04-21 22:43 -1.81063 -55.85601 29937 ft 501 kts 301°
2026-04-21 22:43 -1.79281 -55.88612 30329 ft 505 kts 300°
2026-04-21 22:43 -1.77489 -55.91640 30743 ft 508 kts 300°
2026-04-21 22:44 -1.75691 -55.94678 31285 ft 507 kts 300°
2026-04-21 22:44 -1.73898 -55.97707 31914 ft 505 kts 300°
2026-04-21 22:44 -1.72114 -56.00722 32498 ft 503 kts 300°
2026-04-21 22:44 -1.70334 -56.03729 33095 ft 502 kts 300°
2026-04-21 22:45 -1.68557 -56.06730 33701 ft 501 kts 300°
2026-04-21 22:45 -1.66785 -56.09725 34250 ft 500 kts 300°
2026-04-21 22:45 -1.65020 -56.12707 34825 ft 498 kts 300°
2026-04-21 22:45 -1.63262 -56.15676 35402 ft 495 kts 301°
2026-04-21 22:46 -1.61509 -56.18637 35984 ft 493 kts 301°
2026-04-21 22:46 -1.59768 -56.21577 36577 ft 491 kts 301°
2026-04-21 22:46 -1.58032 -56.24510 37195 ft 488 kts 301°
2026-04-21 22:46 -1.56309 -56.27420 37842 ft 485 kts 301°
2026-04-21 22:47 -1.54571 -56.30354 37870 ft 496 kts 301°
2026-04-21 22:47 -1.52789 -56.33362 37874 ft 508 kts 301°
2026-04-21 22:47 -1.49145 -56.39518 37893 ft 528 kts 301°
2026-04-21 22:48 -1.45311 -56.45991 37891 ft 546 kts 301°
2026-04-21 22:48 -1.41490 -56.52446 37878 ft 530 kts 301°
2026-04-21 22:49 -1.37691 -56.58856 37872 ft 543 kts 301°
2026-04-21 22:49 -1.33812 -56.65407 37880 ft 548 kts 301°
2026-04-21 22:50 -1.29923 -56.71970 37888 ft 549 kts 301°
2026-04-21 22:50 -1.26027 -56.78547 37886 ft 551 kts 301°
2026-04-21 22:51 -1.22123 -56.85136 37880 ft 551 kts 301°
2026-04-21 22:51 -1.18207 -56.91744 37880 ft 553 kts 301°
2026-04-21 22:52 -1.14271 -56.98387 37888 ft 556 kts 301°
2026-04-21 22:52 -1.10333 -57.05031 37887 ft 556 kts 301°
2026-04-21 22:53 -1.06389 -57.11687 37879 ft 556 kts 301°
2026-04-21 22:53 -1.02433 -57.18362 37886 ft 558 kts 301°
2026-04-21 22:54 -0.98477 -57.25036 37888 ft 558 kts 301°
2026-04-21 22:54 -0.95185 -57.30588 37884 ft 559 kts 301°
2026-04-21 22:55 -0.91215 -57.37287 37876 ft 560 kts 301°
2026-04-21 22:55 -0.87237 -57.43996 37879 ft 561 kts 301°
2026-04-21 22:56 -0.83259 -57.50707 37883 ft 561 kts 301°
2026-04-21 22:56 -0.79284 -57.57410 37881 ft 561 kts 301°
2026-04-21 22:57 -0.75312 -57.64110 37885 ft 561 kts 301°
2026-04-21 22:57 -0.71322 -57.70840 37884 ft 564 kts 301°
2026-04-21 22:58 -0.67297 -57.77574 37879 ft 564 kts 303°
2026-04-21 22:58 -0.62289 -57.83578 37885 ft 560 kts 316°
2026-04-21 22:59 -0.56778 -57.89070 37894 ft 560 kts 314°
2026-04-21 22:59 -0.51556 -57.94857 37897 ft 564 kts 314°
2026-04-21 23:00 -0.46083 -58.00487 37897 ft 565 kts 315°
2026-04-21 23:00 -0.40746 -58.06256 37892 ft 565 kts 314°
2026-04-21 23:01 -0.35330 -58.11930 37896 ft 564 kts 315°
2026-04-21 23:01 -0.29967 -58.17652 37893 ft 564 kts 314°
2026-04-21 23:02 -0.24562 -58.23362 37895 ft 568 kts 315°
2026-04-21 23:02 -0.19151 -58.29105 37897 ft 567 kts 314°
2026-04-21 23:03 -0.13741 -58.34842 37901 ft 567 kts 315°
2026-04-21 23:03 -0.08332 -58.40570 37901 ft 567 kts 315°
2026-04-21 23:04 -0.02957 -58.46276 37896 ft 567 kts 315°
2026-04-21 23:04 0.02438 -58.51987 37889 ft 561 kts 314°
2026-04-21 23:05 0.07786 -58.57663 37889 ft 561 kts 314°
2026-04-21 23:05 0.13146 -58.63338 37885 ft 562 kts 314°
2026-04-21 23:06 0.18508 -58.69031 37888 ft 562 kts 314°
2026-04-21 23:06 0.23871 -58.74711 37888 ft 562 kts 314°
2026-04-21 23:07 0.29236 -58.80401 37889 ft 562 kts 314°
2026-04-21 23:07 0.34596 -58.86082 37887 ft 558 kts 314°
2026-04-21 23:08 0.39888 -58.91694 37885 ft 555 kts 314°
2026-04-21 23:08 0.45190 -58.97314 37885 ft 556 kts 314°
2026-04-21 23:09 0.50498 -59.02943 37894 ft 556 kts 314°
2026-04-21 23:09 0.55792 -59.08554 37886 ft 555 kts 314°
2026-04-21 23:10 0.61087 -59.14170 37885 ft 555 kts 314°
2026-04-21 23:10 0.66380 -59.19781 37889 ft 554 kts 314°
2026-04-21 23:11 0.71623 -59.25341 37886 ft 548 kts 314°
2026-04-21 23:11 0.76860 -59.30893 37886 ft 549 kts 314°
2026-04-21 23:12 0.82193 -59.36305 37876 ft 550 kts 317°
2026-04-21 23:12 0.87857 -59.41445 37879 ft 550 kts 318°
2026-04-21 23:13 0.93451 -59.46679 37883 ft 550 kts 317°
2026-04-21 23:13 0.99082 -59.51849 37887 ft 550 kts 318°
2026-04-21 23:14 1.04696 -59.57061 37884 ft 551 kts 317°
2026-04-21 23:14 1.10319 -59.62251 37878 ft 550 kts 318°
2026-04-21 23:15 1.15946 -59.67457 37877 ft 550 kts 317°
2026-04-21 23:15 1.21571 -59.72652 37872 ft 550 kts 318°
2026-04-21 23:16 1.27198 -59.77848 37636 ft 554 kts 318°
2026-04-21 23:16 1.30039 -59.80478 36866 ft 557 kts 318°
2026-04-21 23:16 1.32834 -59.83060 36143 ft 539 kts 318°
2026-04-21 23:17 1.35562 -59.85578 35441 ft 535 kts 318°
2026-04-21 23:17 1.38346 -59.88147 34726 ft 549 kts 318°
2026-04-21 23:17 1.41131 -59.90723 34007 ft 542 kts 318°
2026-04-21 23:17 1.43882 -59.93267 33273 ft 536 kts 318°
2026-04-21 23:18 1.46601 -59.95778 32556 ft 529 kts 318°
2026-04-21 23:18 1.49299 -59.98269 31860 ft 529 kts 317°
2026-04-21 23:18 1.52046 -60.00814 31146 ft 541 kts 317°
2026-04-21 23:18 1.54799 -60.03358 30435 ft 537 kts 317°
2026-04-21 23:19 1.57536 -60.05883 29697 ft 533 kts 317°
2026-04-21 23:19 1.60235 -60.08378 28974 ft 525 kts 317°
2026-04-21 23:19 1.62898 -60.10847 28288 ft 519 kts 317°
2026-04-21 23:19 1.65537 -60.13288 27606 ft 513 kts 317°
2026-04-21 23:20 1.68140 -60.15693 26936 ft 507 kts 317°
2026-04-21 23:20 1.70709 -60.18069 26268 ft 500 kts 317°
2026-04-21 23:20 1.73239 -60.20411 25608 ft 493 kts 317°
2026-04-21 23:20 1.75741 -60.22728 24961 ft 488 kts 317°
2026-04-21 23:21 1.78220 -60.25020 24322 ft 482 kts 317°
2026-04-21 23:21 1.80666 -60.27282 23690 ft 476 kts 318°
2026-04-21 23:21 1.83083 -60.29519 23018 ft 471 kts 317°
2026-04-21 23:21 1.85476 -60.31734 22399 ft 467 kts 317°
2026-04-21 23:22 1.87852 -60.33932 21779 ft 463 kts 317°
2026-04-21 23:22 1.90203 -60.36108 21170 ft 459 kts 317°
2026-04-21 23:22 1.92503 -60.38237 20577 ft 454 kts 317°
2026-04-21 23:22 1.94814 -60.40375 19979 ft 451 kts 317°
2026-04-21 23:23 1.97135 -60.42524 19382 ft 447 kts 316°
2026-04-21 23:23 1.99384 -60.44605 18797 ft 444 kts 316°
2026-04-21 23:23 2.01638 -60.46691 18217 ft 440 kts 316°
2026-04-21 23:23 2.03880 -60.48767 17594 ft 437 kts 316°
2026-04-21 23:24 2.06102 -60.50823 17023 ft 434 kts 316°
2026-04-21 23:24 2.08309 -60.52866 16447 ft 430 kts 316°
2026-04-21 23:24 2.10496 -60.54891 15887 ft 427 kts 316°
2026-04-21 23:24 2.12666 -60.56899 15329 ft 424 kts 316°
2026-04-21 23:25 2.14819 -60.58893 14772 ft 420 kts 316°
2026-04-21 23:25 2.16951 -60.60873 14219 ft 417 kts 317°
2026-04-21 23:25 2.19287 -60.62559 13621 ft 415 kts 333°
2026-04-21 23:25 2.21958 -60.63603 13097 ft 412 kts 340°
2026-04-21 23:26 2.24651 -60.64564 12555 ft 409 kts 340°
2026-04-21 23:26 2.27312 -60.65535 12015 ft 406 kts 339°
2026-04-21 23:26 2.29925 -60.66513 11479 ft 390 kts 339°
2026-04-21 23:26 2.32375 -60.67418 10984 ft 361 kts 339°
2026-04-21 23:27 2.34653 -60.68247 10520 ft 332 kts 339°
2026-04-21 23:27 2.36687 -60.68993 10107 ft 307 kts 339°
2026-04-21 23:27 2.38662 -60.69724 9711 ft 287 kts 339°
2026-04-21 23:27 2.40536 -60.70413 9303 ft 286 kts 339°
2026-04-21 23:28 2.42377 -60.71089 8923 ft 279 kts 339°
2026-04-21 23:28 2.44187 -60.71755 8563 ft 275 kts 339°
2026-04-21 23:28 2.45981 -60.72415 8206 ft 273 kts 340°
2026-04-21 23:28 2.47760 -60.73069 7849 ft 273 kts 340°
2026-04-21 23:29 2.49525 -60.73718 7495 ft 265 kts 340°
2026-04-21 23:29 2.51230 -60.74346 7147 ft 257 kts 340°
2026-04-21 23:29 2.52885 -60.74954 6809 ft 250 kts 340°
2026-04-21 23:29 2.54496 -60.75547 6480 ft 244 kts 340°
2026-04-21 23:30 2.56076 -60.76128 6153 ft 239 kts 341°
2026-04-21 23:30 2.57621 -60.76697 5825 ft 234 kts 341°
2026-04-21 23:30 2.59143 -60.77256 5523 ft 232 kts 341°
2026-04-21 23:30 2.60652 -60.77809 5218 ft 230 kts 341°
2026-04-21 23:31 2.62153 -60.78361 4918 ft 229 kts 341°
2026-04-21 23:31 2.63644 -60.78911 4619 ft 228 kts 341°
2026-04-21 23:31 2.65128 -60.79457 4309 ft 227 kts 341°
2026-04-21 23:31 2.66608 -60.80003 4007 ft 226 kts 341°
2026-04-21 23:32 2.68057 -60.80612 3731 ft 225 kts 333°
2026-04-21 23:32 2.69432 -60.81339 3628 ft 224 kts 334°
2026-04-21 23:32 2.70834 -60.82037 3462 ft 224 kts 334°
2026-04-21 23:32 2.72223 -60.82741 3283 ft 223 kts 334°
2026-04-21 23:33 2.73603 -60.83450 3074 ft 223 kts 334°
2026-04-21 23:33 2.75035 -60.84007 2820 ft 221 kts 353°
2026-04-21 23:33 2.76506 -60.83731 2584 ft 214 kts 26°
2026-04-21 23:33 2.77587 -60.82756 2415 ft 209 kts 56°
2026-04-21 23:34 2.78259 -60.81504 2350 ft 198 kts 63°
2026-04-21 23:34 2.78863 -60.80313 2341 ft 186 kts 63°
2026-04-21 23:34 2.79445 -60.79174 2154 ft 181 kts 63°
2026-04-21 23:34 2.80007 -60.78072 1916 ft 172 kts 63°
2026-04-21 23:35 2.80515 -60.77073 1679 ft 150 kts 63°
2026-04-21 23:35 2.80963 -60.76192 1520 ft 134 kts 63°
2026-04-21 23:35 2.81234 -60.75661 1390 ft 125 kts 63°
2026-04-21 23:35 2.81618 -60.74906 1271 ft 123 kts 63°
2026-04-21 23:36 2.82144 -60.73872 1079 ft 128 kts 63°
2026-04-21 23:36 2.82552 -60.73073 937 ft 130 kts 64°
2026-04-21 23:36 2.82832 -60.72528 830 ft 130 kts 63°
2026-04-21 23:36 2.83237 -60.71738 658 ft 129 kts 64°
2026-04-21 23:37 2.83643 -60.70950 507 ft 126 kts 64°
2026-04-21 23:37 2.84039 -60.70167 337 ft 126 kts 64°
2026-04-21 23:37 2.84528 -60.69211 275 ft 88 kts 63°
2026-04-21 23:37 2.84675 -60.68932 277 ft 54 kts 64°
2026-04-21 23:38 2.84814 -60.68656 277 ft 35 kts 64°
2026-04-21 23:38 2.84887 -60.68505 276 ft 14 kts 77°
2026-04-21 23:38 2.84843 -60.68461 276 ft 10 kts 153°
2026-04-21 23:38 2.84783 -60.68432 276 ft 9 kts 156°
2026-04-21 23:39 2.84748 -60.68452 276 ft 9 kts 243°
2026-04-21 23:39 2.84707 -60.68532 276 ft 16 kts 243°
2026-04-21 23:39 2.84657 -60.68632 276 ft 16 kts 243°
2026-04-21 23:39 2.84608 -60.68726 276 ft 15 kts 243°
2026-04-21 23:40 2.84560 -60.68819 276 ft 15 kts 243°
2026-04-21 23:40 2.84523 -60.68889 276 ft 6 kts 230°
2026-04-21 23:40 2.84493 -60.68886 276 ft 4 kts 153°
2026-04-21 23:40 2.84468 -60.68873 276 ft 8 kts 154°
2026-04-21 23:41 2.84419 -60.68847 276 ft 8 kts 151°
2026-04-21 23:41 2.84377 -60.68864 276 ft 7 kts 239°
2026-04-21 23:41 2.84371 -60.68891 276 ft 2 kts 296°
2026-04-21 23:41 2.84382 -60.68898 276 ft 1 kts 336°
2026-04-21 23:42 2.84384 -60.68899 276 ft 0 kts 336°